Time,TemperatureF,DewpointF,PressureIn,WindDirection,WindDirectionDegrees,WindSpeedMPH,WindSpeedGustMPH,Humidity,HourlyPrecipIn,Conditions,Clouds,dailyrainin,SoftwareType,DateUTC
2013-07-12 00:01:00,61.1,56.9,29.98,NE,46,1.0,6.0,86,0.00,,,0.00,Wunderground v.1.15,2013-07-12 04:01:00,
2013-07-12 00:03:00,61.1,56.9,29.98,NE,46,1.0,6.0,86,0.00,,,0.00,Wunderground v.1.15,2013-07-12 04:03:00,
2013-07-12 00:06:00,61.2,57.0,29.98,NE,45,1.0,6.0,86,0.00,,,0.00,Wunderground v.1.15,2013-07-12 04:06:00,
2013-07-12 00:07:00,61.2,57.0,29.98,NE,44,1.0,6.0,86,0.00,,,0.00,Wunderground v.1.15,2013-07-12 04:07:00,
2013-07-12 00:12:00,61.4,56.8,29.98,NE,43,1.0,6.0,85,0.00,,,0.00,Wunderground v.1.15,2013-07-12 04:12:00,
2013-07-12 00:13:00,61.4,56.8,29.98,NE,49,1.0,6.0,85,0.00,,,0.00,Wunderground v.1.15,2013-07-12 04:13:00,
2013-07-12 00:18:00,61.4,56.8,29.98,NE,45,1.0,6.0,85,0.00,,,0.00,Wunderground v.1.15,2013-07-12 04:18:00,
2013-07-12 00:23:00,61.4,56.8,29.98,NE,40,1.0,6.0,85,0.00,,,0.00,Wunderground v.1.15,2013-07-12 04:23:00,
2013-07-12 00:29:00,61.4,56.8,29.98,NE,40,1.0,6.0,85,0.00,,,0.00,Wunderground v.1.15,2013-07-12 04:29:00,
2013-07-12 00:34:00,61.4,56.8,29.99,NNE,30,0.0,6.0,85,0.00,,,0.00,Wunderground v.1.15,2013-07-12 04:34:00,
2013-07-12 00:39:00,61.3,56.8,29.98,NE,34,0.0,6.0,85,0.00,,,0.00,Wunderground v.1.15,2013-07-12 04:39:00,
2013-07-12 00:44:00,61.3,56.8,29.98,NE,44,1.0,6.0,85,0.00,,,0.00,Wunderground v.1.15,2013-07-12 04:44:00,
2013-07-12 00:49:00,61.2,56.7,29.98,NE,36,0.0,6.0,85,0.00,,,0.00,Wunderground v.1.15,2013-07-12 04:49:00,
2013-07-12 00:55:00,61.2,56.7,29.99,NE,42,0.0,6.0,85,0.00,,,0.00,Wunderground v.1.15,2013-07-12 04:55:00,
2013-07-12 01:00:00,61.0,56.5,29.99,NE,42,0.0,6.0,85,0.00,,,0.00,Wunderground v.1.15,2013-07-12 05:00:00,
2013-07-12 01:05:00,60.9,56.4,29.99,NE,42,0.0,6.0,85,0.00,,,0.00,Wunderground v.1.15,2013-07-12 05:05:00,
2013-07-12 01:10:00,60.8,56.6,29.99,NE,53,0.0,6.0,86,0.00,,,0.00,Wunderground v.1.15,2013-07-12 05:10:00,
2013-07-12 01:15:00,60.8,56.6,29.99,NE,44,0.0,6.0,86,0.00,,,0.00,Wunderground v.1.15,2013-07-12 05:15:00,
2013-07-12 01:21:00,60.7,56.5,29.99,NE,44,0.0,6.0,86,0.00,,,0.00,Wunderground v.1.15,2013-07-12 05:21:00,
2013-07-12 01:26:00,60.6,56.4,29.99,NE,45,0.0,6.0,86,0.00,,,0.00,Wunderground v.1.15,2013-07-12 05:26:00,
2013-07-12 01:31:00,60.4,56.2,29.99,NE,45,0.0,6.0,86,0.00,,,0.00,Wunderground v.1.15,2013-07-12 05:31:00,
2013-07-12 01:36:00,60.2,56.3,29.99,NE,45,0.0,6.0,87,0.00,,,0.00,Wunderground v.1.15,2013-07-12 05:36:00,
2013-07-12 01:41:00,60.0,56.1,29.99,NE,45,0.0,6.0,87,0.00,,,0.00,Wunderground v.1.15,2013-07-12 05:41:00,
2013-07-12 01:47:00,59.8,56.2,29.99,NE,45,0.0,6.0,88,0.00,,,0.00,Wunderground v.1.15,2013-07-12 05:47:00,
2013-07-12 01:52:00,59.8,56.2,29.99,NE,44,0.0,6.0,88,0.00,,,0.00,Wunderground v.1.15,2013-07-12 05:52:00,
2013-07-12 01:57:00,59.8,56.2,29.99,NE,40,0.0,6.0,88,0.00,,,0.00,Wunderground v.1.15,2013-07-12 05:57:00,
2013-07-12 02:02:00,59.7,56.1,29.99,NE,39,0.0,6.0,88,0.00,,,0.00,Wunderground v.1.15,2013-07-12 06:02:00,
2013-07-12 02:07:00,59.7,56.1,29.99,NE,39,0.0,6.0,88,0.00,,,0.00,Wunderground v.1.15,2013-07-12 06:07:00,
2013-07-12 02:13:00,59.7,56.1,29.99,NE,35,0.0,6.0,88,0.00,,,0.00,Wunderground v.1.15,2013-07-12 06:13:00,
2013-07-12 02:18:00,59.8,56.2,29.99,ENE,57,0.0,6.0,88,0.00,,,0.00,Wunderground v.1.15,2013-07-12 06:18:00,
2013-07-12 02:23:00,60.0,56.4,29.99,NE,53,1.0,6.0,88,0.00,,,0.00,Wunderground v.1.15,2013-07-12 06:23:00,
2013-07-12 02:28:00,60.1,56.5,29.99,NE,40,1.0,6.0,88,0.00,,,0.00,Wunderground v.1.15,2013-07-12 06:28:00,
2013-07-12 02:33:00,60.2,56.6,29.99,NNE,23,0.0,6.0,88,0.00,,,0.00,Wunderground v.1.15,2013-07-12 06:33:00,
2013-07-12 02:39:00,60.2,56.6,29.99,NNE,28,0.0,6.0,88,0.00,,,0.00,Wunderground v.1.15,2013-07-12 06:39:00,
2013-07-12 02:44:00,60.1,56.5,29.99,NNE,30,0.0,6.0,88,0.00,,,0.00,Wunderground v.1.15,2013-07-12 06:44:00,
2013-07-12 02:49:00,60.0,56.4,29.99,NE,40,0.0,6.0,88,0.00,,,0.00,Wunderground v.1.15,2013-07-12 06:49:00,
2013-07-12 02:54:00,60.0,56.4,29.99,NE,37,0.0,6.0,88,0.00,,,0.00,Wunderground v.1.15,2013-07-12 06:54:00,
2013-07-12 02:59:00,59.9,56.3,29.99,NE,47,0.0,6.0,88,0.00,,,0.00,Wunderground v.1.15,2013-07-12 06:59:00,
2013-07-12 03:04:00,59.9,56.3,29.99,NE,44,0.0,6.0,88,0.00,,,0.00,Wunderground v.1.15,2013-07-12 07:04:00,
2013-07-12 03:10:00,59.8,56.2,29.99,NE,54,1.0,6.0,88,0.00,,,0.00,Wunderground v.1.15,2013-07-12 07:10:00,
2013-07-12 03:15:00,59.8,56.2,29.99,NE,44,1.0,6.0,88,0.00,,,0.00,Wunderground v.1.15,2013-07-12 07:15:00,
2013-07-12 03:20:00,59.8,56.2,29.99,NNE,29,0.0,6.0,88,0.00,,,0.00,Wunderground v.1.15,2013-07-12 07:20:00,
2013-07-12 03:25:00,59.7,56.5,29.99,NNE,29,0.0,6.0,89,0.00,,,0.00,Wunderground v.1.15,2013-07-12 07:25:00,
2013-07-12 03:31:00,59.6,56.4,29.99,NNE,29,0.0,6.0,89,0.00,,,0.00,Wunderground v.1.15,2013-07-12 07:31:00,
2013-07-12 03:36:00,59.5,56.3,29.99,NE,35,0.0,6.0,89,0.00,,,0.00,Wunderground v.1.15,2013-07-12 07:36:00,
2013-07-12 03:41:00,59.3,56.1,29.99,NE,34,0.0,6.0,89,0.00,,,0.00,Wunderground v.1.15,2013-07-12 07:41:00,
2013-07-12 03:46:00,59.2,56.0,29.99,NNE,32,1.0,6.0,89,0.00,,,0.00,Wunderground v.1.15,2013-07-12 07:46:00,
2013-07-12 03:52:00,59.1,56.2,29.99,NE,34,0.0,6.0,90,0.00,,,0.00,Wunderground v.1.15,2013-07-12 07:52:00,
2013-07-12 03:57:00,59.1,56.2,29.99,NNE,31,0.0,6.0,90,0.00,,,0.00,Wunderground v.1.15,2013-07-12 07:57:00,
2013-07-12 04:02:00,59.1,56.2,29.99,NE,39,1.0,6.0,90,0.00,,,0.00,Wunderground v.1.15,2013-07-12 08:02:00,
2013-07-12 04:07:00,59.2,56.3,29.99,NE,38,1.0,6.0,90,0.00,,,0.00,Wunderground v.1.15,2013-07-12 08:07:00,
2013-07-12 04:13:00,59.3,56.4,29.99,NNE,28,1.0,6.0,90,0.00,,,0.00,Wunderground v.1.15,2013-07-12 08:13:00,
2013-07-12 04:18:00,59.4,56.5,29.99,NE,40,1.0,6.0,90,0.00,,,0.00,Wunderground v.1.15,2013-07-12 08:18:00,
2013-07-12 04:23:00,59.5,56.6,29.99,NE,39,1.0,6.0,90,0.00,,,0.00,Wunderground v.1.15,2013-07-12 08:23:00,
2013-07-12 04:28:00,59.5,56.6,29.99,NNE,26,1.0,6.0,90,0.00,,,0.00,Wunderground v.1.15,2013-07-12 08:28:00,
2013-07-12 04:33:00,59.6,56.7,29.99,NE,53,2.0,6.0,90,0.00,,,0.00,Wunderground v.1.15,2013-07-12 08:33:00,
2013-07-12 04:38:00,59.8,56.9,29.99,ENE,59,2.0,6.0,90,0.00,,,0.00,Wunderground v.1.15,2013-07-12 08:38:00,
2013-07-12 04:43:00,59.8,56.9,29.99,NE,39,2.0,6.0,90,0.00,,,0.00,Wunderground v.1.15,2013-07-12 08:43:00,
2013-07-12 04:48:00,59.9,57.3,30.00,NNE,21,2.0,6.0,91,0.00,,,0.00,Wunderground v.1.15,2013-07-12 08:48:00,
2013-07-12 04:53:00,60.0,57.4,30.00,NE,45,2.0,6.0,91,0.00,,,0.00,Wunderground v.1.15,2013-07-12 08:53:00,
2013-07-12 04:59:00,60.0,57.4,30.00,NE,42,1.0,6.0,91,0.00,,,0.00,Wunderground v.1.15,2013-07-12 08:59:00,
2013-07-12 05:04:00,60.0,57.4,30.00,NE,35,2.0,6.0,91,0.00,,,0.00,Wunderground v.1.15,2013-07-12 09:04:00,
2013-07-12 05:09:00,59.9,57.3,30.00,ENE,64,2.0,6.0,91,0.00,,,0.00,Wunderground v.1.15,2013-07-12 09:09:00,
2013-07-12 05:14:00,59.9,57.3,30.00,NNE,27,2.0,6.0,91,0.00,,,0.00,Wunderground v.1.15,2013-07-12 09:14:00,
2013-07-12 05:19:00,59.9,57.3,30.00,NE,44,2.0,6.0,91,0.00,,,0.00,Wunderground v.1.15,2013-07-12 09:19:00,
2013-07-12 05:25:00,59.8,57.2,30.00,NNE,20,2.0,6.0,91,0.00,,,0.00,Wunderground v.1.15,2013-07-12 09:25:00,
2013-07-12 05:30:00,59.8,57.2,30.00,NNE,26,2.0,6.0,91,0.00,,,0.00,Wunderground v.1.15,2013-07-12 09:30:00,
2013-07-12 05:35:00,59.7,57.1,30.00,NNE,30,2.0,6.0,91,0.00,,,0.00,Wunderground v.1.15,2013-07-12 09:35:00,
2013-07-12 05:40:00,59.6,57.3,30.00,NNE,32,1.0,6.0,92,0.00,,,0.00,Wunderground v.1.15,2013-07-12 09:40:00,
2013-07-12 05:45:00,59.6,57.3,30.00,NNE,23,2.0,6.0,92,0.00,,,0.00,Wunderground v.1.15,2013-07-12 09:45:00,
2013-07-12 05:51:00,59.5,57.2,30.00,NE,38,2.0,6.0,92,0.00,,,0.00,Wunderground v.1.15,2013-07-12 09:51:00,
2013-07-12 05:56:00,59.3,57.0,30.00,NE,46,2.0,6.0,92,0.00,,,0.00,Wunderground v.1.15,2013-07-12 09:56:00,
2013-07-12 06:01:00,59.3,57.0,30.00,NNE,28,2.0,6.0,92,0.00,,,0.00,Wunderground v.1.15,2013-07-12 10:01:00,
2013-07-12 06:06:00,59.3,57.0,30.00,NE,54,2.0,6.0,92,0.00,,,0.00,Wunderground v.1.15,2013-07-12 10:06:00,
2013-07-12 06:11:00,59.2,56.9,30.00,NE,42,3.0,6.0,92,0.00,,,0.00,Wunderground v.1.15,2013-07-12 10:11:00,
2013-07-12 06:16:00,59.2,56.9,30.00,NE,55,2.0,6.0,92,0.00,,,0.00,Wunderground v.1.15,2013-07-12 10:16:00,
2013-07-12 06:21:00,59.0,56.7,30.01,NE,36,2.0,6.0,92,0.00,,,0.00,Wunderground v.1.15,2013-07-12 10:21:00,
2013-07-12 06:26:00,59.0,56.7,30.01,NE,34,2.0,6.0,92,0.00,,,0.00,Wunderground v.1.15,2013-07-12 10:26:00,
2013-07-12 06:31:00,59.0,56.7,30.01,NNE,30,2.0,6.0,92,0.00,,,0.00,Wunderground v.1.15,2013-07-12 10:31:00,
2013-07-12 06:36:00,59.0,56.7,30.01,NNE,30,1.0,6.0,92,0.00,,,0.00,Wunderground v.1.15,2013-07-12 10:36:00,
2013-07-12 06:41:00,59.0,56.7,30.01,NNE,30,1.0,6.0,92,0.00,,,0.00,Wunderground v.1.15,2013-07-12 10:41:00,
2013-07-12 06:47:00,59.0,57.0,30.01,NNE,30,1.0,6.0,93,0.00,,,0.00,Wunderground v.1.15,2013-07-12 10:47:00,
2013-07-12 06:52:00,59.0,57.0,30.01,NNE,30,0.0,6.0,93,0.00,,,0.00,Wunderground v.1.15,2013-07-12 10:52:00,
2013-07-12 06:57:00,59.0,57.0,30.02,NNE,18,1.0,6.0,93,0.00,,,0.00,Wunderground v.1.15,2013-07-12 10:57:00,
2013-07-12 07:02:00,59.0,57.0,30.02,North,5,1.0,6.0,93,0.00,,,0.00,Wunderground v.1.15,2013-07-12 11:02:00,
2013-07-12 07:07:00,59.0,57.0,30.02,North,351,2.0,6.0,93,0.00,,,0.00,Wunderground v.1.15,2013-07-12 11:07:00,
2013-07-12 07:13:00,59.1,57.1,30.02,North,360,2.0,6.0,93,0.00,,,0.00,Wunderground v.1.15,2013-07-12 11:13:00,
2013-07-12 07:18:00,59.2,57.2,30.02,North,5,1.0,6.0,93,0.00,,,0.00,Wunderground v.1.15,2013-07-12 11:18:00,
2013-07-12 07:23:00,59.4,57.4,30.03,North,355,1.0,6.0,93,0.00,,,0.00,Wunderground v.1.15,2013-07-12 11:23:00,
2013-07-12 07:28:00,59.6,57.6,30.03,North,5,2.0,6.0,93,0.00,,,0.00,Wunderground v.1.15,2013-07-12 11:28:00,
2013-07-12 07:33:00,59.8,57.8,30.03,NE,43,2.0,6.0,93,0.00,,,0.00,Wunderground v.1.15,2013-07-12 11:33:00,
2013-07-12 07:39:00,60.1,58.4,30.03,North,5,2.0,6.0,94,0.00,,,0.00,Wunderground v.1.15,2013-07-12 11:39:00,
2013-07-12 07:44:00,60.4,58.4,30.03,NNW,346,2.0,6.0,93,0.00,,,0.00,Wunderground v.1.15,2013-07-12 11:44:00,
2013-07-12 07:49:00,60.7,58.7,30.04,NNE,22,3.0,7.0,93,0.00,,,0.00,Wunderground v.1.15,2013-07-12 11:49:00,
2013-07-12 07:54:00,61.0,59.0,30.04,NE,51,3.0,6.0,93,0.00,,,0.00,Wunderground v.1.15,2013-07-12 11:54:00,
2013-07-12 07:59:00,61.2,59.2,30.04,North,355,2.0,6.0,93,0.00,,,0.00,Wunderground v.1.15,2013-07-12 11:59:00,
2013-07-12 08:04:00,61.5,59.2,30.04,North,360,2.0,6.0,92,0.00,,,0.00,Wunderground v.1.15,2013-07-12 12:04:00,
2013-07-12 08:10:00,62.0,59.3,30.04,NNE,13,3.0,3.0,91,0.00,,,0.00,Wunderground v.1.15,2013-07-12 12:10:00,
2013-07-12 08:15:00,62.6,59.9,30.04,NNE,19,3.0,6.0,91,0.00,,,0.00,Wunderground v.1.15,2013-07-12 12:15:00,
2013-07-12 08:20:00,63.2,59.9,30.04,NNE,21,3.0,6.0,89,0.00,,,0.00,Wunderground v.1.15,2013-07-12 12:20:00,
2013-07-12 08:25:00,63.8,60.2,30.04,NNE,24,4.0,7.0,88,0.00,,,0.00,Wunderground v.1.15,2013-07-12 12:25:00,
2013-07-12 08:30:00,64.4,60.8,30.04,North,5,4.0,6.0,88,0.00,,,0.00,Wunderground v.1.15,2013-07-12 12:30:00,
2013-07-12 08:36:00,64.9,60.6,30.04,NNE,15,4.0,7.0,86,0.00,,,0.00,Wunderground v.1.15,2013-07-12 12:36:00,
2013-07-12 08:41:00,65.5,61.2,30.05,NE,47,3.0,5.0,86,0.00,,,0.00,Wunderground v.1.15,2013-07-12 12:41:00,
2013-07-12 08:46:00,66.0,61.4,30.05,NW,313,3.0,6.0,85,0.00,,,0.00,Wunderground v.1.15,2013-07-12 12:46:00,
2013-07-12 08:52:00,66.7,62.0,30.05,North,10,3.0,6.0,85,0.00,,,0.00,Wunderground v.1.15,2013-07-12 12:52:00,
2013-07-12 08:57:00,67.3,62.3,30.05,NNW,331,2.0,6.0,84,0.00,,,0.00,Wunderground v.1.15,2013-07-12 12:57:00,
2013-07-12 09:02:00,67.7,62.3,30.04,North,360,2.0,6.0,83,0.00,,,0.00,Wunderground v.1.15,2013-07-12 13:02:00,
2013-07-12 09:07:00,68.3,62.6,30.04,NNE,13,2.0,6.0,82,0.00,,,0.00,Wunderground v.1.15,2013-07-12 13:07:00,
2013-07-12 09:13:00,68.7,62.6,30.04,NE,55,2.0,6.0,81,0.00,,,0.00,Wunderground v.1.15,2013-07-12 13:13:00,
2013-07-12 09:18:00,69.0,62.9,30.04,NE,55,3.0,6.0,81,0.00,,,0.00,Wunderground v.1.15,2013-07-12 13:18:00,
2013-07-12 09:23:00,69.4,63.0,30.04,NE,40,3.0,6.0,80,0.00,,,0.00,Wunderground v.1.15,2013-07-12 13:23:00,
2013-07-12 09:28:00,69.5,62.7,30.04,NE,51,4.0,6.0,79,0.00,,,0.00,Wunderground v.1.15,2013-07-12 13:28:00,
2013-07-12 09:34:00,69.7,62.9,30.04,North,351,4.0,9.0,79,0.00,,,0.00,Wunderground v.1.15,2013-07-12 13:34:00,
2013-07-12 09:39:00,69.9,63.8,30.04,North,5,3.0,9.0,81,0.00,,,0.00,Wunderground v.1.15,2013-07-12 13:39:00,
2013-07-12 09:44:00,70.4,63.9,30.04,NNE,12,2.0,6.0,80,0.00,,,0.00,Wunderground v.1.15,2013-07-12 13:44:00,
2013-07-12 09:49:00,70.6,63.4,30.04,NE,42,2.0,6.0,78,0.00,,,0.00,Wunderground v.1.15,2013-07-12 13:49:00,
2013-07-12 09:55:00,70.8,64.0,30.04,North,360,3.0,9.0,79,0.00,,,0.00,Wunderground v.1.15,2013-07-12 13:55:00,
2013-07-12 10:00:00,70.9,63.7,30.04,NNE,12,3.0,3.0,78,0.00,,,0.00,Wunderground v.1.15,2013-07-12 14:00:00,
2013-07-12 10:05:00,70.9,63.7,30.04,NE,48,4.0,6.0,78,0.00,,,0.00,Wunderground v.1.15,2013-07-12 14:05:00,
2013-07-12 10:10:00,71.1,63.9,30.04,NNE,22,3.0,6.0,78,0.00,,,0.00,Wunderground v.1.15,2013-07-12 14:10:00,
2013-07-12 10:16:00,71.5,64.3,30.04,North,349,3.0,6.0,78,0.00,,,0.00,Wunderground v.1.15,2013-07-12 14:16:00,
2013-07-12 10:21:00,71.6,64.4,30.04,NW,320,3.0,7.0,78,0.00,,,0.00,Wunderground v.1.15,2013-07-12 14:21:00,
2013-07-12 10:26:00,71.7,64.5,30.04,North,355,5.0,7.0,78,0.00,,,0.00,Wunderground v.1.15,2013-07-12 14:26:00,
2013-07-12 10:31:00,71.9,64.7,30.04,NE,41,5.0,6.0,78,0.00,,,0.00,Wunderground v.1.15,2013-07-12 14:31:00,
2013-07-12 10:37:00,71.9,64.7,30.04,North,5,4.0,14.0,78,0.00,,,0.00,Wunderground v.1.15,2013-07-12 14:37:00,
2013-07-12 10:42:00,72.4,65.2,30.04,ENE,60,4.0,6.0,78,0.00,,,0.00,Wunderground v.1.15,2013-07-12 14:42:00,
2013-07-12 10:48:00,72.8,65.2,30.04,NNW,333,4.0,8.0,77,0.00,,,0.00,Wunderground v.1.15,2013-07-12 14:48:00,
2013-07-12 10:53:00,72.3,64.3,30.04,North,5,4.0,6.0,76,0.00,,,0.00,Wunderground v.1.15,2013-07-12 14:53:00,
2013-07-12 10:58:00,71.7,63.7,30.04,North,11,5.0,10.0,76,0.00,,,0.00,Wunderground v.1.15,2013-07-12 14:58:00,
2013-07-12 11:03:00,71.9,63.2,30.04,NE,44,5.0,7.0,74,0.00,,,0.00,Wunderground v.1.15,2013-07-12 15:03:00,
2013-07-12 11:08:00,72.2,63.4,30.04,North,11,5.0,7.0,74,0.00,,,0.00,Wunderground v.1.15,2013-07-12 15:08:00,
2013-07-12 11:13:00,72.4,63.6,30.04,NE,54,5.0,9.0,74,0.00,,,0.00,Wunderground v.1.15,2013-07-12 15:13:00,
2013-07-12 11:18:00,72.9,64.9,30.04,NNW,348,5.0,9.0,76,0.00,,,0.00,Wunderground v.1.15,2013-07-12 15:18:00,
2013-07-12 11:24:00,73.4,63.4,30.04,NNE,24,2.0,6.0,71,0.00,,,0.00,Wunderground v.1.15,2013-07-12 15:24:00,
2013-07-12 11:29:00,73.3,63.3,30.04,NNE,30,0.0,6.0,71,0.00,,,0.00,Wunderground v.1.15,2013-07-12 15:29:00,
2013-07-12 11:34:00,73.5,63.9,30.04,NE,36,0.0,6.0,72,0.00,,,0.00,Wunderground v.1.15,2013-07-12 15:34:00,
2013-07-12 11:40:00,73.6,64.8,30.04,NE,36,0.0,6.0,74,0.00,,,0.00,Wunderground v.1.15,2013-07-12 15:40:00,
2013-07-12 11:45:00,74.3,64.3,30.04,NE,36,0.0,6.0,71,0.00,,,0.00,Wunderground v.1.15,2013-07-12 15:45:00,
2013-07-12 11:50:00,74.8,63.1,30.04,NE,36,0.0,6.0,67,0.00,,,0.00,Wunderground v.1.15,2013-07-12 15:50:00,
2013-07-12 11:55:00,75.0,63.7,30.04,NE,36,0.0,6.0,68,0.00,,,0.00,Wunderground v.1.15,2013-07-12 15:55:00,
2013-07-12 12:00:00,75.9,65.8,30.04,NE,36,0.0,6.0,71,0.00,,,0.00,Wunderground v.1.15,2013-07-12 16:00:00,
2013-07-12 12:06:00,76.3,64.1,30.04,NE,36,0.0,6.0,66,0.00,,,0.00,Wunderground v.1.15,2013-07-12 16:06:00,
2013-07-12 12:11:00,76.1,63.0,30.04,NE,36,0.0,6.0,64,0.00,,,0.00,Wunderground v.1.15,2013-07-12 16:11:00,
2013-07-12 12:16:00,75.9,64.2,30.03,NE,36,0.0,6.0,67,0.00,,,0.00,Wunderground v.1.15,2013-07-12 16:16:00,
2013-07-12 12:21:00,75.8,64.5,30.03,NE,36,0.0,6.0,68,0.00,,,0.00,Wunderground v.1.15,2013-07-12 16:21:00,
2013-07-12 12:27:00,76.3,63.7,30.04,NE,36,0.0,6.0,65,0.00,,,0.00,Wunderground v.1.15,2013-07-12 16:27:00,
2013-07-12 12:32:00,76.6,63.1,30.03,NE,36,0.0,6.0,63,0.00,,,0.00,Wunderground v.1.15,2013-07-12 16:32:00,
2013-07-12 12:37:00,76.7,64.0,30.03,NE,36,0.0,6.0,65,0.00,,,0.00,Wunderground v.1.15,2013-07-12 16:37:00,
2013-07-12 12:43:00,76.7,63.6,30.03,NE,36,0.0,6.0,64,0.00,,,0.00,Wunderground v.1.15,2013-07-12 16:43:00,
2013-07-12 12:48:00,76.9,65.1,30.03,NE,36,0.0,6.0,67,0.00,,,0.00,Wunderground v.1.15,2013-07-12 16:48:00,
2013-07-12 12:54:00,76.8,64.6,30.03,NE,36,0.0,6.0,66,0.00,,,0.00,Wunderground v.1.15,2013-07-12 16:54:00,
2013-07-12 12:59:00,76.2,63.1,30.03,NE,36,0.0,6.0,64,0.00,,,0.00,Wunderground v.1.15,2013-07-12 16:59:00,
2013-07-12 13:04:00,76.4,63.8,30.03,NE,36,0.0,6.0,65,0.00,,,0.00,Wunderground v.1.15,2013-07-12 17:04:00,
2013-07-12 13:10:00,76.6,63.1,30.03,NE,36,0.0,6.0,63,0.00,,,0.00,Wunderground v.1.15,2013-07-12 17:10:00,
2013-07-12 13:15:00,76.5,63.0,30.03,NE,36,0.0,6.0,63,0.00,,,0.00,Wunderground v.1.15,2013-07-12 17:15:00,
2013-07-12 13:20:00,76.0,62.9,30.02,NE,36,0.0,6.0,64,0.00,,,0.00,Wunderground v.1.15,2013-07-12 17:20:00,
2013-07-12 13:26:00,76.1,63.9,30.02,NE,36,0.0,6.0,66,0.00,,,0.00,Wunderground v.1.15,2013-07-12 17:26:00,
2013-07-12 13:31:00,76.9,62.9,30.02,NE,36,0.0,6.0,62,0.00,,,0.00,Wunderground v.1.15,2013-07-12 17:31:00,
2013-07-12 13:37:00,77.6,64.0,30.02,NE,36,0.0,6.0,63,0.00,,,0.00,Wunderground v.1.15,2013-07-12 17:37:00,
2013-07-12 13:43:00,77.5,63.0,30.02,NE,36,0.0,6.0,61,0.00,,,0.00,Wunderground v.1.15,2013-07-12 17:43:00,
2013-07-12 13:48:00,77.3,63.7,30.02,NE,36,0.0,6.0,63,0.00,,,0.00,Wunderground v.1.15,2013-07-12 17:48:00,
2013-07-12 13:53:00,77.7,65.4,30.02,NE,36,0.0,6.0,66,0.00,,,0.00,Wunderground v.1.15,2013-07-12 17:53:00,
2013-07-12 13:58:00,78.3,64.2,30.02,NE,36,0.0,6.0,62,0.00,,,0.00,Wunderground v.1.15,2013-07-12 17:58:00,
2013-07-12 14:04:00,78.7,65.5,30.02,NE,36,0.0,6.0,64,0.00,,,0.00,Wunderground v.1.15,2013-07-12 18:04:00,
2013-07-12 14:09:00,78.9,65.7,30.01,NE,36,0.0,6.0,64,0.00,,,0.00,Wunderground v.1.15,2013-07-12 18:09:00,
2013-07-12 14:14:00,79.2,66.0,30.02,NE,36,0.0,6.0,64,0.00,,,0.00,Wunderground v.1.15,2013-07-12 18:14:00,
2013-07-12 14:20:00,78.6,64.9,30.02,NE,36,0.0,6.0,63,0.00,,,0.00,Wunderground v.1.15,2013-07-12 18:20:00,
2013-07-12 14:26:00,77.8,64.2,30.02,NE,36,0.0,6.0,63,0.00,,,0.00,Wunderground v.1.15,2013-07-12 18:26:00,
2013-07-12 14:32:00,77.4,64.7,30.01,NE,36,0.0,6.0,65,0.00,,,0.00,Wunderground v.1.15,2013-07-12 18:32:00,
2013-07-12 14:40:00,77.3,65.1,30.01,NE,36,0.0,6.0,66,0.00,,,0.00,Wunderground v.1.15,2013-07-12 18:40:00,
2013-07-12 14:45:00,77.6,65.3,30.01,NE,36,0.0,6.0,66,0.00,,,0.00,Wunderground v.1.15,2013-07-12 18:45:00,
2013-07-12 14:51:00,78.0,66.2,30.01,NE,36,0.0,6.0,67,0.00,,,0.00,Wunderground v.1.15,2013-07-12 18:51:00,
2013-07-12 14:56:00,77.7,65.4,30.01,NE,36,0.0,6.0,66,0.00,,,0.00,Wunderground v.1.15,2013-07-12 18:56:00,
2013-07-12 15:01:00,77.5,67.8,30.01,NE,36,0.0,6.0,72,0.00,,,0.00,Wunderground v.1.15,2013-07-12 19:01:00,
2013-07-12 15:06:00,77.9,66.1,30.01,NE,36,0.0,6.0,67,0.00,,,0.00,Wunderground v.1.15,2013-07-12 19:06:00,
2013-07-12 15:11:00,77.6,64.5,30.00,NE,36,0.0,6.0,64,0.00,,,0.00,Wunderground v.1.15,2013-07-12 19:11:00,
2013-07-12 15:18:00,77.3,65.5,30.00,NE,36,0.0,6.0,67,0.00,,,0.00,Wunderground v.1.15,2013-07-12 19:18:00,
2013-07-12 15:23:00,77.4,65.1,30.01,NE,36,0.0,6.0,66,0.00,,,0.00,Wunderground v.1.15,2013-07-12 19:23:00,
2013-07-12 15:28:00,78.2,66.3,30.01,NE,36,0.0,6.0,67,0.00,,,0.00,Wunderground v.1.15,2013-07-12 19:28:00,
2013-07-12 15:33:00,78.7,66.4,30.01,NE,36,0.0,6.0,66,0.00,,,0.00,Wunderground v.1.15,2013-07-12 19:33:00,
2013-07-12 15:39:00,78.9,64.8,30.01,NE,36,0.0,6.0,62,0.00,,,0.00,Wunderground v.1.15,2013-07-12 19:39:00,
2013-07-12 15:44:00,78.8,66.0,30.01,NE,36,0.0,6.0,65,0.00,,,0.00,Wunderground v.1.15,2013-07-12 19:44:00,
2013-07-12 15:49:00,78.7,64.6,30.01,NE,36,0.0,6.0,62,0.00,,,0.00,Wunderground v.1.15,2013-07-12 19:49:00,
2013-07-12 15:54:00,78.7,65.5,30.00,NE,36,0.0,6.0,64,0.00,,,0.00,Wunderground v.1.15,2013-07-12 19:54:00,
2013-07-12 16:01:00,79.4,66.6,30.00,NE,36,0.0,6.0,65,0.00,,,0.00,Wunderground v.1.15,2013-07-12 20:01:00,
2013-07-12 16:06:00,79.5,65.8,30.01,NE,36,0.0,6.0,63,0.00,,,0.00,Wunderground v.1.15,2013-07-12 20:06:00,
2013-07-12 16:12:00,78.7,64.1,30.00,NE,36,0.0,6.0,61,0.00,,,0.00,Wunderground v.1.15,2013-07-12 20:12:00,
2013-07-12 16:18:00,78.7,64.6,30.00,NE,36,0.0,6.0,62,0.00,,,0.00,Wunderground v.1.15,2013-07-12 20:18:00,
2013-07-12 16:24:00,78.4,63.8,30.01,NE,36,0.0,6.0,61,0.00,,,0.00,Wunderground v.1.15,2013-07-12 20:24:00,
2013-07-12 16:29:00,78.4,64.3,30.01,NE,36,0.0,6.0,62,0.00,,,0.00,Wunderground v.1.15,2013-07-12 20:29:00,
2013-07-12 16:34:00,78.3,65.1,30.00,NE,36,0.0,6.0,64,0.00,,,0.00,Wunderground v.1.15,2013-07-12 20:34:00,
2013-07-12 16:40:00,78.3,64.2,30.01,NE,36,0.0,6.0,62,0.00,,,0.00,Wunderground v.1.15,2013-07-12 20:40:00,
2013-07-12 16:45:00,78.1,65.4,30.00,NE,36,0.0,6.0,65,0.00,,,0.00,Wunderground v.1.15,2013-07-12 20:45:00,
2013-07-12 16:51:00,78.1,64.5,30.00,NE,36,0.0,6.0,63,0.00,,,0.00,Wunderground v.1.15,2013-07-12 20:51:00,
2013-07-12 16:56:00,78.5,64.4,30.00,NE,36,0.0,6.0,62,0.00,,,0.00,Wunderground v.1.15,2013-07-12 20:56:00,
2013-07-12 17:01:00,78.7,64.6,30.00,NE,36,0.0,6.0,62,0.00,,,0.00,Wunderground v.1.15,2013-07-12 21:01:00,
2013-07-12 17:06:00,79.0,64.9,30.00,NE,36,0.0,6.0,62,0.00,,,0.00,Wunderground v.1.15,2013-07-12 21:06:00,
2013-07-12 17:12:00,79.3,65.1,30.00,NE,36,0.0,6.0,62,0.00,,,0.00,Wunderground v.1.15,2013-07-12 21:12:00,
2013-07-12 17:17:00,79.4,64.8,30.00,NE,36,0.0,6.0,61,0.00,,,0.00,Wunderground v.1.15,2013-07-12 21:17:00,
2013-07-12 17:23:00,79.6,64.0,30.00,NE,36,0.0,6.0,59,0.00,,,0.00,Wunderground v.1.15,2013-07-12 21:23:00,
2013-07-12 17:28:00,79.9,65.2,30.00,NE,36,0.0,6.0,61,0.00,,,0.00,Wunderground v.1.15,2013-07-12 21:28:00,
2013-07-12 17:33:00,79.6,65.4,30.00,NE,36,0.0,6.0,62,0.00,,,0.00,Wunderground v.1.15,2013-07-12 21:33:00,
2013-07-12 17:39:00,79.0,64.4,30.00,NE,36,0.0,6.0,61,0.00,,,0.00,Wunderground v.1.15,2013-07-12 21:39:00,
2013-07-12 17:44:00,78.5,65.3,30.00,NE,36,0.0,6.0,64,0.00,,,0.00,Wunderground v.1.15,2013-07-12 21:44:00,
2013-07-12 17:49:00,78.1,64.5,30.00,NE,36,0.0,6.0,63,0.00,,,0.00,Wunderground v.1.15,2013-07-12 21:49:00,
2013-07-12 17:56:00,77.9,64.7,30.01,NE,36,0.0,6.0,64,0.00,,,0.00,Wunderground v.1.15,2013-07-12 21:56:00,
2013-07-12 18:01:00,77.9,64.7,30.01,NE,36,0.0,6.0,64,0.00,,,0.00,Wunderground v.1.15,2013-07-12 22:01:00,
2013-07-12 18:07:00,77.1,64.0,30.01,NE,36,0.0,6.0,64,0.00,,,0.00,Wunderground v.1.15,2013-07-12 22:07:00,
2013-07-12 18:12:00,76.7,64.5,30.01,NE,36,0.0,6.0,66,0.00,,,0.00,Wunderground v.1.15,2013-07-12 22:12:00,
2013-07-12 18:19:00,76.8,65.0,30.00,NE,36,0.0,6.0,67,0.00,,,0.00,Wunderground v.1.15,2013-07-12 22:19:00,
2013-07-12 18:24:00,76.9,64.2,30.01,NE,36,0.0,6.0,65,0.00,,,0.00,Wunderground v.1.15,2013-07-12 22:24:00,
2013-07-12 18:29:00,76.6,64.0,30.00,NE,36,0.0,6.0,65,0.00,,,0.00,Wunderground v.1.15,2013-07-12 22:29:00,
2013-07-12 18:34:00,76.4,64.2,30.00,NE,36,0.0,6.0,66,0.00,,,0.00,Wunderground v.1.15,2013-07-12 22:34:00,
2013-07-12 18:40:00,76.7,64.9,30.00,NE,36,0.0,6.0,67,0.00,,,0.00,Wunderground v.1.15,2013-07-12 22:40:00,
2013-07-12 18:45:00,76.9,63.8,30.01,NE,36,0.0,6.0,64,0.00,,,0.00,Wunderground v.1.15,2013-07-12 22:45:00,
2013-07-12 18:50:00,76.7,63.6,30.01,NE,36,0.0,6.0,64,0.00,,,0.00,Wunderground v.1.15,2013-07-12 22:50:00,
2013-07-12 18:55:00,76.2,63.1,30.01,NE,36,0.0,6.0,64,0.00,,,0.00,Wunderground v.1.15,2013-07-12 22:55:00,
2013-07-12 19:00:00,75.9,63.3,30.01,NE,36,0.0,6.0,65,0.00,,,0.00,Wunderground v.1.15,2013-07-12 23:00:00,
2013-07-12 19:07:00,75.4,63.2,30.01,NE,36,0.0,6.0,66,0.00,,,0.00,Wunderground v.1.15,2013-07-12 23:07:00,
2013-07-12 19:13:00,75.1,63.0,30.02,NE,36,0.0,6.0,66,0.00,,,0.00,Wunderground v.1.15,2013-07-12 23:13:00,
2013-07-12 19:19:00,75.1,63.8,30.02,NE,36,0.0,6.0,68,0.00,,,0.00,Wunderground v.1.15,2013-07-12 23:19:00,
2013-07-12 19:24:00,75.1,63.8,30.02,NE,36,0.0,6.0,68,0.00,,,0.00,Wunderground v.1.15,2013-07-12 23:24:00,
2013-07-12 19:29:00,75.0,63.7,30.02,NE,36,0.0,6.0,68,0.00,,,0.00,Wunderground v.1.15,2013-07-12 23:29:00,
2013-07-12 19:34:00,75.0,63.7,30.01,NE,36,0.0,6.0,68,0.00,,,0.00,Wunderground v.1.15,2013-07-12 23:34:00,
2013-07-12 19:40:00,74.9,63.6,30.01,NE,36,0.0,6.0,68,0.00,,,0.00,Wunderground v.1.15,2013-07-12 23:40:00,
2013-07-12 19:45:00,74.9,63.6,30.01,NE,36,0.0,6.0,68,0.00,,,0.00,Wunderground v.1.15,2013-07-12 23:45:00,
2013-07-12 19:50:00,74.9,63.6,30.02,NE,36,0.0,6.0,68,0.00,,,0.00,Wunderground v.1.15,2013-07-12 23:50:00,
2013-07-12 19:55:00,74.8,63.9,30.02,NE,36,0.0,6.0,69,0.00,,,0.00,Wunderground v.1.15,2013-07-12 23:55:00,
2013-07-12 20:01:00,74.6,63.8,30.02,NE,36,0.0,6.0,69,0.00,,,0.00,Wunderground v.1.15,2013-07-13 00:01:00,
2013-07-12 20:07:00,74.3,63.5,30.02,NE,36,0.0,6.0,69,0.00,,,0.00,Wunderground v.1.15,2013-07-13 00:07:00,
2013-07-12 20:12:00,74.0,63.2,30.01,NE,36,0.0,6.0,69,0.00,,,0.00,Wunderground v.1.15,2013-07-13 00:12:00,
2013-07-12 20:18:00,73.7,62.9,30.01,NE,36,0.0,6.0,69,0.00,,,0.00,Wunderground v.1.15,2013-07-13 00:18:00,
2013-07-12 20:26:00,73.2,62.8,30.02,NE,36,0.0,6.0,70,0.00,,,0.00,Wunderground v.1.15,2013-07-13 00:26:00,
2013-07-12 20:31:00,73.0,62.6,30.02,NE,36,0.0,6.0,70,0.00,,,0.00,Wunderground v.1.15,2013-07-13 00:31:00,
2013-07-12 20:36:00,72.7,62.8,30.02,NE,36,0.0,6.0,71,0.00,,,0.00,Wunderground v.1.15,2013-07-13 00:36:00,
2013-07-12 20:43:00,72.3,62.4,30.02,NE,36,0.0,6.0,71,0.00,,,0.00,Wunderground v.1.15,2013-07-13 00:43:00,
2013-07-12 20:49:00,71.9,62.0,30.02,NE,36,0.0,6.0,71,0.00,,,0.00,Wunderground v.1.15,2013-07-13 00:49:00,
2013-07-12 20:55:00,71.6,62.1,30.02,NE,36,0.0,6.0,72,0.00,,,0.00,Wunderground v.1.15,2013-07-13 00:55:00,
2013-07-12 21:00:00,71.3,61.4,30.02,NE,36,0.0,6.0,71,0.00,,,0.00,Wunderground v.1.15,2013-07-13 01:00:00,
2013-07-12 21:05:00,71.1,61.2,30.02,NE,36,0.0,6.0,71,0.00,,,0.00,Wunderground v.1.15,2013-07-13 01:05:00,
2013-07-12 21:11:00,70.8,61.3,30.03,NE,36,0.0,6.0,72,0.00,,,0.00,Wunderground v.1.15,2013-07-13 01:11:00,
2013-07-12 21:16:00,70.6,61.5,30.03,NE,36,0.0,6.0,73,0.00,,,0.00,Wunderground v.1.15,2013-07-13 01:16:00,
2013-07-12 21:21:00,70.2,61.1,30.03,NE,36,0.0,6.0,73,0.00,,,0.00,Wunderground v.1.15,2013-07-13 01:21:00,
2013-07-12 21:28:00,69.9,61.2,30.03,NE,36,0.0,6.0,74,0.00,,,0.00,Wunderground v.1.15,2013-07-13 01:28:00,
2013-07-12 21:33:00,69.7,61.0,30.04,NE,36,0.0,6.0,74,0.00,,,0.00,Wunderground v.1.15,2013-07-13 01:33:00,
2013-07-12 21:38:00,69.4,61.1,30.04,NE,36,0.0,6.0,75,0.00,,,0.00,Wunderground v.1.15,2013-07-13 01:38:00,
2013-07-12 21:44:00,69.3,61.4,30.04,NE,36,0.0,6.0,76,0.00,,,0.00,Wunderground v.1.15,2013-07-13 01:44:00,
2013-07-12 21:49:00,69.2,61.3,30.04,NE,36,0.0,6.0,76,0.00,,,0.00,Wunderground v.1.15,2013-07-13 01:49:00,
2013-07-12 21:56:00,69.2,61.3,30.04,NE,36,0.0,6.0,76,0.00,,,0.00,Wunderground v.1.15,2013-07-13 01:56:00,
2013-07-12 22:02:00,69.2,61.7,30.05,NE,36,0.0,6.0,77,0.00,,,0.00,Wunderground v.1.15,2013-07-13 02:02:00,
2013-07-12 22:07:00,69.1,61.9,30.05,NE,36,0.0,6.0,78,0.00,,,0.00,Wunderground v.1.15,2013-07-13 02:07:00,
2013-07-12 22:13:00,68.9,61.8,30.06,NE,36,0.0,6.0,78,0.00,,,0.00,Wunderground v.1.15,2013-07-13 02:13:00,
2013-07-12 22:18:00,68.8,61.3,30.06,NE,36,0.0,6.0,77,0.00,,,0.00,Wunderground v.1.15,2013-07-13 02:18:00,
2013-07-12 22:24:00,68.7,61.2,30.06,NE,36,0.0,6.0,77,0.00,,,0.00,Wunderground v.1.15,2013-07-13 02:24:00,
2013-07-12 22:29:00,68.6,61.5,30.06,NE,36,0.0,6.0,78,0.00,,,0.00,Wunderground v.1.15,2013-07-13 02:29:00,
2013-07-12 22:35:00,68.4,61.6,30.06,NE,36,0.0,6.0,79,0.00,,,0.00,Wunderground v.1.15,2013-07-13 02:35:00,
2013-07-12 22:40:00,68.1,61.7,30.05,NE,36,0.0,6.0,80,0.00,,,0.00,Wunderground v.1.15,2013-07-13 02:40:00,
2013-07-12 22:46:00,67.9,61.5,30.05,NE,36,0.0,6.0,80,0.00,,,0.00,Wunderground v.1.15,2013-07-13 02:46:00,
2013-07-12 22:52:00,67.6,61.2,30.05,NE,36,0.0,6.0,80,0.00,,,0.00,Wunderground v.1.15,2013-07-13 02:52:00,
2013-07-12 22:57:00,67.4,61.4,30.05,NE,36,0.0,6.0,81,0.00,,,0.00,Wunderground v.1.15,2013-07-13 02:57:00,
2013-07-12 23:03:00,67.2,61.5,30.06,NE,36,0.0,6.0,82,0.00,,,0.00,Wunderground v.1.15,2013-07-13 03:03:00,
2013-07-12 23:08:00,67.1,61.8,30.05,NE,36,0.0,6.0,83,0.00,,,0.00,Wunderground v.1.15,2013-07-13 03:08:00,
2013-07-12 23:15:00,66.9,61.6,30.05,NE,36,0.0,6.0,83,0.00,,,0.00,Wunderground v.1.15,2013-07-13 03:15:00,
2013-07-12 23:22:00,66.8,61.8,30.05,NE,36,0.0,6.0,84,0.00,,,0.00,Wunderground v.1.15,2013-07-13 03:22:00,
2013-07-12 23:27:00,66.7,61.7,30.05,NE,36,0.0,6.0,84,0.00,,,0.00,Wunderground v.1.15,2013-07-13 03:27:00,
2013-07-12 23:33:00,66.6,61.6,30.05,NE,36,0.0,6.0,84,0.00,,,0.00,Wunderground v.1.15,2013-07-13 03:33:00,
2013-07-12 23:38:00,66.6,61.6,30.04,NE,36,0.0,6.0,84,0.00,,,0.00,Wunderground v.1.15,2013-07-13 03:38:00,
2013-07-12 23:44:00,66.5,61.5,30.04,NE,36,0.0,6.0,84,0.00,,,0.00,Wunderground v.1.15,2013-07-13 03:44:00,
2013-07-12 23:49:00,66.6,61.6,30.05,NE,36,0.0,6.0,84,0.00,,,0.00,Wunderground v.1.15,2013-07-13 03:49:00,
2013-07-12 23:54:00,66.6,61.6,30.05,NE,36,0.0,6.0,84,0.00,,,0.00,Wunderground v.1.15,2013-07-13 03:54:00,
2013-07-12 23:59:00,66.6,61.9,30.05,NE,36,0.0,6.0,85,0.00,,,0.00,Wunderground v.1.15,2013-07-13 03:59:00,